This is the latest recevied weather packets stored in our database for station/object K6CQU-13. If no packets are shown the sender has not sent any weather packets the latest 10 day(s).
| Time | Temp. | Humidity | Pressure | Rain* | Wind** | Luminosity | Snow |
|---|---|---|---|---|---|---|---|
| 1787849116 | 26.67° C | 50% | 1013.1 hPa | 0 mm | - | 524 W/m² | - |
| 1787848816 | 26.67° C | 51% | 1013 hPa | 0 mm | - | 510 W/m² | - |
| 1787848516 | 26.11° C | 54% | 1013.1 hPa | 0 mm | - | 497 W/m² | - |
| 1787848216 | 26.11° C | 54% | 1013.1 hPa | 0 mm | - | 482 W/m² | - |
| 1787847916 | 25.56° C | 55% | 1013 hPa | 0 mm | - | 467 W/m² | - |
| 1787847616 | 25.56° C | 55% | 1013 hPa | 0 mm | - | 452 W/m² | - |
| 1787847316 | 25.56° C | 56% | 1013.1 hPa | 0 mm | - | 437 W/m² | - |
| 1787847016 | 25° C | 57% | 1013 hPa | 0 mm | - | 422 W/m² | - |
| 1787846716 | 25° C | 58% | 1013 hPa | 0 mm | - | 405 W/m² | - |
| 1787846416 | 24.44° C | 58% | 1013 hPa | 0 mm | - | 390 W/m² | - |
| 1787846116 | 24.44° C | 59% | 1013.1 hPa | 0 mm | - | 374 W/m² | - |
| 1787845816 | 23.89° C | 62% | 1013.1 hPa | 0 mm | - | 358 W/m² | - |
| 1787845516 | 23.33° C | 64% | 1013.1 hPa | 0 mm | - | 343 W/m² | - |
| 1787845216 | 23.33° C | 62% | 1013.1 hPa | 0 mm | - | 329 W/m² | - |
| 1787844916 | 23.33° C | 61% | 1013.1 hPa | 0 mm | - | 313 W/m² | - |
| 1787844616 | 23.33° C | 61% | 1013.1 hPa | 0 mm | - | 297 W/m² | - |
| 1787844318 | 23.33° C | 61% | 1013.2 hPa | 0 mm | - | 279 W/m² | - |
| 1787844018 | 23.33° C | 62% | 1013.2 hPa | 0 mm | - | 262 W/m² | - |
| 1787843721 | 23.33° C | 63% | 1013.1 hPa | 0 mm | - | 248 W/m² | - |
| 1787843418 | 22.78° C | 62% | 1013.1 hPa | 0 mm | - | 233 W/m² | - |
| 1787843118 | 22.78° C | 62% | 1013.1 hPa | 0 mm | - | 218 W/m² | - |
| 1787842818 | 22.22° C | 63% | 1013.1 hPa | 0 mm | - | 203 W/m² | - |
| 1787842518 | 22.22° C | 64% | 1013.1 hPa | 0 mm | - | 188 W/m² | - |
| 1787842218 | 21.67° C | 65% | 1013.1 hPa | 0 mm | - | 171 W/m² | - |
| 1787841918 | 21.11° C | 65% | 1013 hPa | 0 mm | - | 156 W/m² | - |
* Rain latest hour (hover to see other rain measurements)
** Current wind speed in m/s (hover to see current wind gust speed)